Stündliche Wetter Otnosovo

Heute, 14 April, Mittwoch

Zeit Temperatur Niederschläge Wind Luftdruck Luftfeuchtigkeit
00:00 +12°C° 0 mm 2 m/S 742 mmHg 81%
01:00 +12°C° 0 mm 2 m/S 742 mmHg 83%
02:00 +10°C° 0 mm 2 m/S 741 mmHg 88%
03:00 +10°C° 0 mm 2 m/S 741 mmHg 89%
04:00 +10°C° 0 mm 2 m/S 741 mmHg 90%
05:00 +9°C° 0 mm 2 m/S 741 mmHg 92%
06:00 +10°C° 0 mm 2 m/S 741 mmHg 87%
07:00 +12°C° 0 mm 2 m/S 742 mmHg 82%
08:00 +12°C° 0 mm 3 m/S 742 mmHg 78%
09:00 +13°C° 0.1 mm 3 m/S 742 mmHg 73%
10:00 +14°C° 0.1 mm 3 m/S 741 mmHg 68%
11:00 +16°C° 0.1 mm 3 m/S 741 mmHg 63%
12:00 +16°C° 0.3 mm 3 m/S 741 mmHg 62%
13:00 +16°C° 0.3 mm 3 m/S 741 mmHg 61%
14:00 +16°C° 0.3 mm 3 m/S 741 mmHg 61%
15:00 +16°C° 0.1 mm 3 m/S 741 mmHg 63%
16:00 +16°C° 0.1 mm 2 m/S 741 mmHg 66%
17:00 +15°C° 0.1 mm 1 m/S 741 mmHg 68%
18:00 +14°C° 0 mm 1 m/S 741 mmHg 73%
19:00 +13°C° 0 mm 1 m/S 741 mmHg 77%
20:00 +11°C° 0 mm 0 m/S 741 mmHg 81%
21:00 +11°C° 0 mm 1 m/S 741 mmHg 83%
22:00 +11°C° 0 mm 1 m/S 741 mmHg 85%
23:00 +9°C° 0 mm 2 m/S 741 mmHg 87%

Morgen, 15 April, Donnerstag

Zeit Temperatur Niederschläge Wind Luftdruck Luftfeuchtigkeit
00:00 +9°C° 0.2 mm 2 m/S 740 mmHg 89%
01:00 +9°C° 0.2 mm 2 m/S 740 mmHg 91%
02:00 +8°C° 0.2 mm 2 m/S 740 mmHg 94%
03:00 +8°C° 0.3 mm 2 m/S 740 mmHg 94%
04:00 +8°C° 0.3 mm 3 m/S 740 mmHg 94%
05:00 +8°C° 0.3 mm 3 m/S 740 mmHg 94%
06:00 +9°C° 0 mm 3 m/S 740 mmHg 90%
07:00 +10°C° 0 mm 3 m/S 740 mmHg 86%
08:00 +10°C° 0 mm 3 m/S 741 mmHg 82%
09:00 +11°C° 0 mm 4 m/S 741 mmHg 75%
10:00 +12°C° 0 mm 4 m/S 741 mmHg 69%
11:00 +14°C° 0 mm 4 m/S 741 mmHg 63%
12:00 +14°C° 0.1 mm 4 m/S 740 mmHg 61%
13:00 +14°C° 0.1 mm 4 m/S 740 mmHg 59%
14:00 +15°C° 0.1 mm 4 m/S 740 mmHg 57%
15:00 +14°C° 0.2 mm 5 m/S 740 mmHg 60%
16:00 +13°C° 0.2 mm 5 m/S 740 mmHg 64%
17:00 +13°C° 0.2 mm 5 m/S 740 mmHg 68%
18:00 +10°C° 0.1 mm 5 m/S 741 mmHg 74%
19:00 +9°C° 0.1 mm 6 m/S 741 mmHg 80%
20:00 +8°C° 0.1 mm 6 m/S 741 mmHg 87%
21:00 +7°C° 0 mm 6 m/S 741 mmHg 87%
22:00 +7°C° 0 mm 6 m/S 741 mmHg 88%
23:00 +5°C° 0 mm 6 m/S 741 mmHg 88%

übermorgen, 16 April, Freitag

Zeit Temperatur Niederschläge Wind Luftdruck Luftfeuchtigkeit
00:00 +5°C° 0.1 mm 6 m/S 741 mmHg 89%
01:00 +5°C° 0.1 mm 6 m/S 741 mmHg 90%
02:00 +6°C° 0.1 mm 5 m/S 741 mmHg 91%
03:00 +6°C° 0.2 mm 5 m/S 741 mmHg 92%
04:00 +6°C° 0.2 mm 5 m/S 741 mmHg 92%
05:00 +6°C° 0.2 mm 5 m/S 742 mmHg 93%
06:00 +6°C° 0.2 mm 5 m/S 742 mmHg 91%
07:00 +6°C° 0.2 mm 5 m/S 742 mmHg 90%
08:00 +6°C° 0.2 mm 5 m/S 742 mmHg 88%
09:00 +7°C° 0 mm 5 m/S 743 mmHg 84%
10:00 +9°C° 0 mm 5 m/S 743 mmHg 80%
11:00 +10°C° 0 mm 5 m/S 743 mmHg 77%
12:00 +10°C° 0 mm 5 m/S 743 mmHg 75%
13:00 +12°C° 0 mm 5 m/S 743 mmHg 74%
14:00 +12°C° 0 mm 5 m/S 743 mmHg 73%
15:00 +12°C° 0 mm 5 m/S 743 mmHg 72%
16:00 +11°C° 0 mm 6 m/S 743 mmHg 72%
17:00 +11°C° 0 mm 6 m/S 743 mmHg 71%
18:00 +11°C° 0 mm 6 m/S 743 mmHg 72%
19:00 +10°C° 0 mm 5 m/S 744 mmHg 73%
20:00 +10°C° 0 mm 5 m/S 744 mmHg 74%
21:00 +9°C° 0.1 mm 5 m/S 744 mmHg 75%
22:00 +8°C° 0.1 mm 5 m/S 744 mmHg 76%
23:00 +8°C° 0.1 mm 5 m/S 745 mmHg 78%

17 April, Samstag

Zeit Temperatur Niederschläge Wind Luftdruck Luftfeuchtigkeit
00:00 +7°C° 0 mm 5 m/S 745 mmHg 79%
01:00 +7°C° 0 mm 5 m/S 745 mmHg 81%
02:00 +6°C° 0 mm 5 m/S 745 mmHg 83%
03:00 +6°C° 0 mm 4 m/S 745 mmHg 83%
04:00 +6°C° 0 mm 4 m/S 746 mmHg 83%
05:00 +5°C° 0 mm 4 m/S 746 mmHg 83%
06:00 +6°C° 0 mm 5 m/S 746 mmHg 81%
07:00 +6°C° 0 mm 5 m/S 746 mmHg 78%
08:00 +6°C° 0 mm 5 m/S 747 mmHg 76%
09:00 +8°C° 0 mm 5 m/S 747 mmHg 72%
10:00 +9°C° 0 mm 5 m/S 747 mmHg 68%
11:00 +10°C° 0 mm 5 m/S 747 mmHg 64%
12:00 +12°C° 0 mm 5 m/S 747 mmHg 61%
13:00 +11°C° 0 mm 6 m/S 747 mmHg 57%
14:00 +13°C° 0 mm 6 m/S 747 mmHg 54%
15:00 +13°C° 0 mm 6 m/S 747 mmHg 55%
16:00 +13°C° 0 mm 5 m/S 747 mmHg 55%
17:00 +12°C° 0 mm 5 m/S 747 mmHg 56%
18:00 +10°C° 0 mm 5 m/S 747 mmHg 56%
19:00 +10°C° 0 mm 4 m/S 747 mmHg 56%
20:00 +7°C° 0 mm 4 m/S 747 mmHg 57%
21:00 +7°C° 0 mm 4 m/S 748 mmHg 58%
22:00 +6°C° 0 mm 4 m/S 748 mmHg 60%
23:00 +5°C° 0 mm 4 m/S 748 mmHg 62%

18 April, Sonntag

Zeit Temperatur Niederschläge Wind Luftdruck Luftfeuchtigkeit
00:00 +4°C° 0 mm 4 m/S 748 mmHg 65%
01:00 +4°C° 0 mm 4 m/S 748 mmHg 68%
02:00 +3°C° 0 mm 4 m/S 748 mmHg 70%
03:00 +3°C° 0 mm 4 m/S 748 mmHg 72%
04:00 +3°C° 0 mm 4 m/S 748 mmHg 73%
05:00 +2°C° 0 mm 3 m/S 748 mmHg 75%
06:00 +4°C° 0 mm 4 m/S 748 mmHg 70%
07:00 +5°C° 0 mm 4 m/S 748 mmHg 65%
08:00 +6°C° 0 mm 4 m/S 749 mmHg 59%
09:00 +7°C° 0 mm 4 m/S 749 mmHg 56%
10:00 +10°C° 0 mm 4 m/S 749 mmHg 52%
11:00 +11°C° 0 mm 4 m/S 749 mmHg 49%
12:00 +11°C° 0 mm 4 m/S 749 mmHg 48%
13:00 +12°C° 0 mm 4 m/S 749 mmHg 47%
14:00 +13°C° 0 mm 3 m/S 749 mmHg 46%
15:00 +12°C° 0 mm 3 m/S 749 mmHg 48%
16:00 +12°C° 0 mm 3 m/S 749 mmHg 50%
17:00 +12°C° 0 mm 3 m/S 749 mmHg 52%
18:00 +12°C° 0 mm 2 m/S 749 mmHg 57%
19:00 +9°C° 0 mm 2 m/S 750 mmHg 62%
20:00 +7°C° 0 mm 2 m/S 750 mmHg 67%
21:00 +7°C° 0 mm 2 m/S 750 mmHg 68%
22:00 +6°C° 0 mm 2 m/S 750 mmHg 68%
23:00 +5°C° 0 mm 2 m/S 750 mmHg 69%

19 April, Montag

Zeit Temperatur Niederschläge Wind Luftdruck Luftfeuchtigkeit
00:00 +5°C° 0 mm 2 m/S 750 mmHg 72%
01:00 +4°C° 0 mm 2 m/S 751 mmHg 75%
02:00 +4°C° 0 mm 2 m/S 751 mmHg 78%
03:00 +4°C° 0 mm 2 m/S 751 mmHg 80%
04:00 +3°C° 0 mm 2 m/S 751 mmHg 82%
05:00 +3°C° 0 mm 2 m/S 751 mmHg 84%
06:00 +5°C° 0 mm 2 m/S 751 mmHg 77%
07:00 +7°C° 0 mm 3 m/S 751 mmHg 70%
08:00 +9°C° 0 mm 3 m/S 752 mmHg 63%
09:00 +10°C° 0 mm 3 m/S 752 mmHg 58%
10:00 +11°C° 0 mm 3 m/S 752 mmHg 53%
11:00 +12°C° 0 mm 3 m/S 752 mmHg 47%
12:00 +13°C° 0 mm 3 m/S 752 mmHg 46%
13:00 +13°C° 0 mm 3 m/S 751 mmHg 44%
14:00 +14°C° 0 mm 3 m/S 751 mmHg 42%
15:00 +13°C° 0 mm 3 m/S 751 mmHg 46%
16:00 +12°C° 0 mm 3 m/S 751 mmHg 50%
17:00 +13°C° 0 mm 2 m/S 751 mmHg 54%
18:00 +12°C° 0 mm 2 m/S 751 mmHg 56%
19:00 +10°C° 0 mm 3 m/S 751 mmHg 58%
20:00 +10°C° 0 mm 3 m/S 751 mmHg 61%
21:00 +9°C° 0 mm 3 m/S 751 mmHg 63%
22:00 +9°C° 0 mm 3 m/S 751 mmHg 66%
23:00 +8°C° 0 mm 3 m/S 751 mmHg 68%
Mehr zeigen

Wir brauchen deine Erlaubnis

Meteoprog und unser Service Anbieter werden persönliche Daten aufbewahren, so wie Cookies, Geräte Bezeichnung oder ähnliche Technologien von deinem Gerät und Prozess, so wie Persönliche Daten Inhalte und Werbungen, genauso wie social Media und den Verkehr zu analysieren.

  • Aufbewahrung und/oder Zugang zu deiner Geräte Informationen.

    Cookies, Geräte Bezeichnung oder andere Informationen, können aufbewahrt oder Zugang zu deinem Gerät erhalten, für den Grund, der oben angegeben wird.

  • Personalisierte Werbung und Inhalte, Messungen, Einblick in das Publikum und Produkt Entwicklung.

    Werbungen und Inhalte können personalisiert werden, basierend auf ein Profil. Mehr Daten können besser personalisierte Werbungen und Inhalte hinzufügen. Werbung und Inhalte können gezeigt und gemessen werden. Einblicke über das Publikum, welche die Werbung gesehen haben und den Inhalt, können abgeleitet werden. So wie Daten können genutzt werden, um es zu verbessern oder die Benutzer Erfahrung zu verbessern das System und die Software.

Wenn du “Ich stimme zu” klickst, erlaubst du uns, die Cookies zu benutzen die Geräte Bezeichnung, den Web oder ähnliche Technologien zu benutzen. Deine Settings, können in deinem Gerät bei deinem Browser geändert werden.

Für den bestimmten Zweck, berechtigten Interessen beruhen darauf, mehr als auf den Inhalt. Du kannst mehr darüber in unseren Privaten und Cookie Politik lesen.